| time (UTC) | temp F | wind direction | speed MPH | gust MPH | rain 1hr in | rain 24hr in | rain mn in | humidity % | barometer mb |
| 20260502224717 | 58 | 138 | 4.0 | 7.0 | 0.00 | 0.00 | 0.00 | ||
| 20260502224309 | 59 | 135 | 3.0 | 4.0 | 0.00 | 0.00 | 0.00 | ||
| 20260502223908 | 59 | 117 | 4.0 | 5.0 | 0.00 | 0.00 | 0.00 | ||
| 20260502223507 | 59 | 109 | 5.0 | 7.0 | 0.00 | 0.00 | 0.00 | ||
| 20260502223104 | 59 | 114 | 5.0 | 7.0 | 0.00 | 0.00 | 0.00 | ||
| 20260502222703 | 60 | 111 | 5.0 | 9.0 | 0.00 | 0.00 | 0.00 | ||
| 20260502222305 | 59 | 114 | 6.0 | 8.0 | 0.00 | 0.00 | 0.00 | ||
| 20260502221900 | 59 | 120 | 5.0 | 7.0 | 0.00 | 0.00 | 0.00 | ||
| 20260502221458 | 60 | 126 | 5.0 | 7.0 | 0.00 | 0.00 | 0.00 | ||
| 20260502221057 | 59 | 115 | 6.0 | 9.0 | 0.00 | 0.00 | 0.00 | ||
| 20260502220655 | 59 | 112 | 5.0 | 6.0 | 0.00 | 0.00 | 0.00 | ||
| 20260502220247 | 59 | 114 | 4.0 | 7.0 | 0.00 | 0.00 | 0.00 | ||
| 20260502215844 | 60 | 114 | 4.0 | 6.0 | 0.00 | 0.00 | 0.00 | ||
| 20260502215443 | 59 | 111 | 5.0 | 7.0 | 0.00 | 0.00 | 0.00 | ||
| 20260502215042 | 58 | 106 | 4.0 | 5.0 | 0.00 | 0.00 | 0.00 | ||
| 20260502214640 | 58 | 111 | 3.0 | 5.0 | 0.00 | 0.00 | 0.00 | ||
| 20260502214239 | 58 | 111 | 3.0 | 4.0 | 0.00 | 0.00 | 0.00 | ||
| 20260502213836 | 59 | 98 | 4.0 | 6.0 | 0.00 | 0.00 | 0.00 | ||
| 20260502213435 | 58 | 111 | 5.0 | 6.0 | 0.00 | 0.00 | 0.00 | ||
| 20260502213034 | 58 | 111 | 4.0 | 6.0 | 0.00 | 0.00 | 0.00 | ||
| 20260502212632 | 57 | 111 | 4.0 | 5.0 | 0.00 | 0.00 | 0.00 | ||
| 20260502212223 | 57 | 111 | 3.0 | 4.0 | 0.00 | 0.00 | 0.00 | ||
| 20260502211822 | 57 | 122 | 3.0 | 3.0 | 0.00 | 0.00 | 0.00 | ||
| 20260502211421 | 56 | 135 | 1.0 | 3.0 | 0.00 | 0.00 | 0.00 | ||
| 20260502211020 | 57 | 135 | 3.0 | 4.0 | 0.00 | 0.00 | 0.00 | ||
| 20260502210617 | 57 | 135 | 3.0 | 3.0 | 0.00 | 0.00 | 0.00 | ||
| 20260502210216 | 57 | 135 | 3.0 | 4.0 | 0.00 | 0.00 | 0.00 | ||
| 20260502205814 | 57 | 135 | 2.0 | 4.0 | 0.00 | 0.00 | 0.00 | ||
| 20260502205413 | 58 | 135 | 2.0 | 3.0 | 0.00 | 0.00 | 0.00 | ||
| 20260502204609 | 57 | 135 | 2.0 | 3.0 | 0.00 | 0.00 | 0.00 | ||
| 20260502204201 | 57 | 135 | 2.0 | 3.0 | 0.00 | 0.00 | 0.00 | ||
| 20260502203759 | 57 | 135 | 1.0 | 3.0 | 0.00 | 0.00 | 0.00 | ||
| 20260502203358 | 58 | 135 | 3.0 | 4.0 | 0.00 | 0.00 | 0.00 | ||
| 20260502202956 | 58 | 135 | 1.0 | 2.0 | 0.00 | 0.00 | 0.00 | ||
| 20260502202554 | 58 | 135 | 3.0 | 4.0 | 0.00 | 0.00 | 0.00 | ||
| 20260502202153 | 58 | 157 | 2.0 | 3.0 | 0.00 | 0.00 | 0.00 | ||
| 20260502201751 | 58 | 157 | 2.0 | 3.0 | 0.00 | 0.00 | 0.00 | ||
| 20260502201348 | 59 | 157 | 2.0 | 3.0 | 0.00 | 0.00 | 0.00 | ||
| 20260502200947 | 58 | 157 | 2.0 | 3.0 | 0.00 | 0.00 | 0.00 | ||
| 20260502200545 | 59 | 192 | 4.0 | 7.0 | 0.00 | 0.00 | 0.00 | ||
| 20260502200137 | 59 | 111 | 4.0 | 4.0 | 0.00 | 0.00 | 0.00 | ||
| 20260502195734 | 59 | 111 | 4.0 | 5.0 | 0.00 | 0.00 | 0.00 | ||
| 20260502195333 | 59 | 111 | 3.0 | 4.0 | 0.00 | 0.00 | 0.00 | ||
| 20260502194530 | 60 | 136 | 3.0 | 3.0 | 0.00 | 0.00 | 0.00 | ||
| 20260502194128 | 59 | 157 | 2.0 | 3.0 | 0.00 | 0.00 | 0.00 | ||
| 20260502193726 | 60 | 180 | 2.0 | 2.0 | 0.00 | 0.00 | 0.00 | ||
| 20260502193325 | 62 | 120 | 2.0 | 3.0 | 0.00 | 0.00 | 0.00 | ||
| 20260502192924 | 62 | 69 | 3.0 | 6.0 | 0.00 | 0.00 | 0.00 | ||
| 20260502192522 | 62 | 56 | 4.0 | 7.0 | 0.00 | 0.00 | 0.00 | ||
| 20260502192113 | 63 | 62 | 4.0 | 7.0 | 0.00 | 0.00 | 0.00 | ||
| 20260502191711 | 63 | 62 | 5.0 | 8.0 | 0.00 | 0.00 | 0.00 | ||
| 20260502191310 | 63 | 61 | 6.0 | 8.0 | 0.00 | 0.00 | 0.00 | ||
| 20260502190909 | 63 | 58 | 5.0 | 8.0 | 0.00 | 0.00 | 0.00 | ||
| 20260502190506 | 63 | 45 | 5.0 | 8.0 | 0.00 | 0.00 | 0.00 | ||
| 20260502190105 | 64 | 50 | 6.0 | 8.0 | 0.00 | 0.00 | 0.00 | ||
| 20260502185703 | 64 | 42 | 7.0 | 9.0 | 0.00 | 0.00 | 0.00 | ||
| 20260502185305 | 64 | 47 | 7.0 | 9.0 | 0.00 | 0.00 | 0.00 | ||
| 20260502184900 | 64 | 48 | 7.0 | 9.0 | 0.00 | 0.00 | 0.00 | ||
| 20260502184458 | 65 | 45 | 8.0 | 9.0 | 0.00 | 0.00 | 0.00 | ||
| 20260502184051 | 65 | 44 | 8.0 | 10.0 | 0.00 | 0.00 | 0.00 | ||
| 20260502183649 | 65 | 42 | 6.0 | 9.0 | 0.00 | 0.00 | 0.00 | ||
| 20260502183247 | 65 | 35 | 6.0 | 8.0 | 0.00 | 0.00 | 0.00 | ||
| 20260502182846 | 65 | 40 | 6.0 | 8.0 | 0.00 | 0.00 | 0.00 | ||
| 20260502182444 | 65 | 37 | 5.0 | 8.0 | 0.00 | 0.00 | 0.00 | ||
| 20260502182042 | 66 | 22 | 6.0 | 8.0 | 0.00 | 0.00 | 0.00 | ||
| 20260502181640 | 66 | 21 | 6.0 | 7.0 | 0.00 | 0.00 | 0.00 | ||
| 20260502181238 | 66 | 20 | 6.0 | 8.0 | 0.00 | 0.00 | 0.00 | ||
| 20260502180838 | 66 | 36 | 4.0 | 6.0 | 0.00 | 0.00 | 0.00 | ||
| 20260502180435 | 67 | 40 | 5.0 | 9.0 | 0.00 | 0.00 | 0.00 | ||
| 20260502170357 | 70 | 75 | 5.0 | 8.0 | 0.00 | 0.00 | 0.00 | ||
| 20260502163941 | 72 | 74 | 6.0 | 9.0 | 0.00 | 0.00 | 0.00 | ||
| 20260502163539 | 72 | 72 | 6.0 | 10.0 | 0.00 | 0.00 | 0.00 | ||
| 20260502163137 | 74 | 71 | 5.0 | 9.0 | 0.00 | 0.00 | 0.00 | ||
| 20260502162736 | 75 | 25 | 3.0 | 7.0 | 0.00 | 0.00 | 0.00 | ||
| 20260502162334 | 75 | 35 | 5.0 | 6.0 | 0.00 | 0.00 | 0.00 | ||
| 20260502161933 | 76 | 48 | 4.0 | 5.0 | 0.00 | 0.00 | 0.00 | ||
| 20260502161530 | 78 | 18 | 2.0 | 6.0 | 0.00 | 0.00 | 0.00 | ||
| 20260502161129 | 76 | 27 | 5.0 | 9.0 | 0.00 | 0.00 | 0.00 | ||
| 20260502160728 | 77 | 55 | 3.0 | 5.0 | 0.00 | 0.00 | 0.00 | ||
| 20260502160326 | 75 | 40 | 4.0 | 9.0 | 0.00 | 0.00 | 0.00 | ||
| 20260502152305 | 73 | 52 | 5.0 | 8.0 | 0.00 | 0.00 | 0.00 | ||
| 20260502151854 | 73 | 23 | 5.0 | 9.0 | 0.00 | 0.00 | 0.00 | ||
| 20260502151453 | 73 | 33 | 4.0 | 8.0 | 0.00 | 0.00 | 0.00 | ||
| 20260502151052 | 73 | 54 | 8.0 | 13.0 | 0.00 | 0.00 | 0.00 | ||
| 20260502150649 | 73 | 38 | 5.0 | 9.0 | 0.00 | 0.00 | 0.00 | ||
| 20260502150248 | 73 | 39 | 7.0 | 10.0 | 0.00 | 0.00 | 0.00 | ||
| 20260502130541 | 74 | 74 | 3.0 | 10.0 | 0.00 | 0.00 | 0.00 | ||
| 20260502130139 | 74 | 48 | 2.0 | 5.0 | 0.00 | 0.00 | 0.00 | ||
| 20260502123723 | 73 | 26 | 5.0 | 7.0 | 0.00 | 0.00 | 0.00 | ||
| 20260502123321 | 73 | 70 | 3.0 | 10.0 | 0.00 | 0.00 | 0.00 | ||
| 20260502122919 | 73 | 77 | 5.0 | 7.0 | 0.00 | 0.00 | 0.00 | ||
| 20260502122518 | 73 | 87 | 4.0 | 9.0 | 0.00 | 0.00 | 0.00 | ||
| 20260502122116 | 73 | 63 | 7.0 | 11.0 | 0.00 | 0.00 | 0.00 | ||
| 20260502121715 | 72 | 23 | 7.0 | 11.0 | 0.00 | 0.00 | 0.00 | ||
| 20260502121312 | 73 | 9 | 9.0 | 12.0 | 0.00 | 0.00 | 0.00 | ||
| 20260502120911 | 73 | 28 | 4.0 | 10.0 | 0.00 | 0.00 | 0.00 | ||
| 20260502120510 | 73 | 79 | 5.0 | 6.0 | 0.00 | 0.00 | 0.00 | ||
| 20260502120108 | 73 | 15 | 5.0 | 11.0 | 0.00 | 0.00 | 0.00 | ||
| 20260502115659 | 72 | 9 | 4.0 | 6.0 | 0.00 | 0.00 | 0.00 | ||
| 20260502115257 | 72 | 11 | 8.0 | 12.0 | 0.00 | 0.00 | 0.00 | ||
| 20260502114856 | 71 | 353 | 4.0 | 9.0 | 0.00 | 0.00 | 0.00 | ||
| 20260502114455 | 72 | 19 | 7.0 | 11.0 | 0.00 | 0.00 | 0.00 | ||
| 20260502114052 | 72 | 2 | 3.0 | 11.0 | 0.00 | 0.00 | 0.00 | ||
| 20260502113651 | 72 | 23 | 6.0 | 11.0 | 0.00 | 0.00 | 0.00 | ||
| 20260502112848 | 71 | 345 | 5.0 | 8.0 | 0.00 | 0.00 | 0.00 | ||
| 20260502112447 | 72 | 42 | 6.0 | 10.0 | 0.00 | 0.00 | 0.00 | ||
| 20260502112044 | 72 | 55 | 5.0 | 9.0 | 0.00 | 0.00 | 0.00 | ||
| 20260502111636 | 72 | 354 | 5.0 | 8.0 | 0.00 | 0.00 | 0.00 | ||
| 20260502111235 | 71 | 332 | 8.0 | 11.0 | 0.00 | 0.00 | 0.00 | ||
| 20260502110834 | 71 | 350 | 4.0 | 9.0 | 0.00 | 0.00 | 0.00 | ||
| 20260502110432 | 70 | 1 | 7.0 | 11.0 | 0.00 | 0.00 | 0.00 | ||
| 20260502110030 | 71 | 336 | 4.0 | 8.0 | 0.00 | 0.00 | 0.00 | ||
| 20260502105227 | 71 | 343 | 6.0 | 9.0 | 0.00 | 0.00 | 0.00 | ||
| 20260502104825 | 71 | 4 | 4.0 | 8.0 | 0.00 | 0.00 | 0.00 | ||
| 20260502104424 | 70 | 343 | 4.0 | 7.0 | 0.00 | 0.00 | 0.00 | ||
| 20260502104022 | 71 | 17 | 6.0 | 10.0 | 0.00 | 0.00 | 0.00 | ||
| 20260502103614 | 71 | 359 | 4.0 | 8.0 | 0.00 | 0.00 | 0.00 | ||
| 20260502103211 | 71 | 42 | 2.0 | 5.0 | 0.00 | 0.00 | 0.00 | ||
| 20260502102810 | 71 | 10 | 4.0 | 7.0 | 0.00 | 0.00 | 0.00 | ||
| 20260502102409 | 71 | 8 | 6.0 | 11.0 | 0.00 | 0.00 | 0.00 | ||
| 20260502102007 | 70 | 356 | 4.0 | 9.0 | 0.00 | 0.00 | 0.00 | ||
| 20260502101606 | 69 | 328 | 4.0 | 8.0 | 0.00 | 0.00 | 0.00 | ||
| 20260502101203 | 70 | 31 | 2.0 | 6.0 | 0.00 | 0.00 | 0.00 | ||
| 20260502100802 | 69 | 73 | 10.0 | 13.0 | 0.00 | 0.00 | 0.00 | ||
| 20260502091526 | 69 | 82 | 8.0 | 13.0 | 0.00 | 0.00 | 0.00 | ||
| 20260502091124 | 69 | 55 | 8.0 | 12.0 | 0.00 | 0.00 | 0.00 | ||
| 20260502090723 | 69 | 18 | 5.0 | 10.0 | 0.00 | 0.00 | 0.00 | ||
| 20260502090321 | 69 | 180 | 1.0 | 4.0 | 0.00 | 0.00 | 0.00 | ||
| 20260502071417 | 64 | 225 | 0.0 | 2.0 | 0.00 | 0.00 | 0.00 | ||
| 20260502071015 | 66 | 202 | 1.0 | 3.0 | 0.00 | 0.00 | 0.00 | ||
| 20260502070613 | 68 | 189 | 1.0 | 4.0 | 0.00 | 0.00 | 0.00 | ||
| 20260502070212 | 71 | 157 | 1.0 | 3.0 | 0.00 | 0.00 | 0.00 | ||
| 20260502065810 | 65 | 146 | 2.0 | 4.0 | 0.00 | 0.00 | 0.00 | ||
| 20260502065409 | 64 | 135 | 1.0 | 3.0 | 0.00 | 0.00 | 0.00 | ||
| 20260502065007 | 63 | 135 | 0.0 | 1.0 | 0.00 | 0.00 | 0.00 | ||
| 20260502064605 | 64 | 135 | 1.0 | 3.0 | 0.00 | 0.00 | 0.00 | ||
| 20260502064204 | 65 | 135 | 1.0 | 2.0 | 0.00 | 0.00 | 0.00 | ||
| 20260502063802 | 65 | 135 | 2.0 | 3.0 | 0.00 | 0.00 | 0.00 | ||
| 20260502063354 | 63 | 135 | 0.0 | 2.0 | 0.00 | 0.00 | 0.00 | ||
| 20260502062951 | 64 | 135 | 0.0 | 0.0 | 0.00 | 0.00 | 0.00 | ||
| 20260502062550 | 65 | 135 | 0.0 | 2.0 | 0.00 | 0.00 | 0.00 | ||
| 20260502062149 | 64 | 135 | 0.0 | 3.0 | 0.00 | 0.00 | 0.00 | ||
| 20260502061748 | 65 | 135 | 0.0 | 2.0 | 0.00 | 0.00 | 0.00 | ||
| 20260502061345 | 64 | 135 | 0.0 | 1.0 | 0.00 | 0.00 | 0.00 | ||
| 20260502060944 | 63 | 135 | 1.0 | 2.0 | 0.00 | 0.00 | 0.00 | ||
| 20260502060543 | 62 | 135 | 0.0 | 2.0 | 0.00 | 0.00 | 0.00 | ||
| 20260502060142 | 62 | 135 | 2.0 | 3.0 | 0.00 | 0.00 | 0.00 | ||
| 20260502055738 | 62 | 135 | 1.0 | 2.0 | 0.00 | 0.00 | 0.00 | ||
| 20260502055330 | 60 | 135 | 0.0 | 2.0 | 0.00 | 0.00 | 0.00 | ||
| 20260502054929 | 61 | 135 | 0.0 | 2.0 | 0.00 | 0.00 | 0.00 | ||
| 20260502054528 | 60 | 135 | 1.0 | 2.0 | 0.00 | 0.00 | 0.00 | ||
| 20260502054127 | 60 | 135 | 1.0 | 2.0 | 0.00 | 0.00 | 0.00 | ||
| 20260502053724 | 59 | 135 | 1.0 | 2.0 | 0.00 | 0.00 | 0.00 | ||
| 20260502053323 | 58 | 135 | 0.0 | 2.0 | 0.00 | 0.00 | 0.00 | ||
| 20260502052921 | 58 | 135 | 0.0 | 2.0 | 0.00 | 0.00 | 0.00 | ||
| 20260502052520 | 58 | 135 | 1.0 | 2.0 | 0.00 | 0.00 | 0.00 | ||
| 20260502052118 | 56 | 135 | 0.0 | 1.0 | 0.00 | 0.00 | 0.00 | ||
| 20260502051716 | 56 | 135 | 1.0 | 4.0 | 0.00 | 0.00 | 0.00 | ||
| 20260502051308 | 54 | 135 | 1.0 | 3.0 | 0.00 | 0.00 | 0.00 | ||
| 20260502050906 | 55 | 135 | 2.0 | 5.0 | 0.00 | 0.00 | 0.00 | ||
| 20260502050504 | 54 | 135 | 3.0 | 4.0 | 0.00 | 0.00 | 0.00 | ||
| 20260502045701 | 54 | 135 | 0.0 | 2.0 | 0.00 | 0.00 | 0.00 | ||
| 20260502045300 | 53 | 135 | 0.0 | 0.0 | 0.00 | 0.00 | 0.00 | ||
| 20260502044857 | 53 | 135 | 0.0 | 1.0 | 0.00 | 0.00 | 0.00 | ||
| 20260502044456 | 53 | 135 | 2.0 | 3.0 | 0.00 | 0.00 | 0.00 | ||
| 20260502044055 | 52 | 135 | 0.0 | 2.0 | 0.00 | 0.00 | 0.00 | ||
| 20260502043653 | 52 | 135 | 1.0 | 2.0 | 0.00 | 0.00 | 0.00 | ||
| 20260502043245 | 51 | 135 | 0.0 | 3.0 | 0.00 | 0.00 | 0.00 | ||
| 20260502042842 | 51 | 135 | 2.0 | 4.0 | 0.00 | 0.00 | 0.00 | ||
| 20260502042441 | 52 | 136 | 3.0 | 5.0 | 0.00 | 0.00 | 0.00 | ||
| 20260502042041 | 51 | 157 | 2.0 | 4.0 | 0.00 | 0.00 | 0.00 | ||
| 20260502041639 | 50 | 139 | 2.0 | 6.0 | 0.00 | 0.00 | 0.00 | ||
| 20260502041237 | 50 | 153 | 2.0 | 4.0 | 0.00 | 0.00 | 0.00 | ||
| 20260502040835 | 49 | 157 | 1.0 | 2.0 | 0.00 | 0.00 | 0.00 | ||
| 20260502040434 | 50 | 157 | 2.0 | 5.0 | 0.00 | 0.00 | 0.00 | ||
| 20260502040033 | 49 | 169 | 3.0 | 5.0 | 0.00 | 0.00 | 0.00 | ||
| 20260502035630 | 47 | 161 | 3.0 | 6.0 | 0.00 | 0.00 | 0.00 | ||
| 20260502035222 | 48 | 157 | 3.0 | 5.0 | 0.00 | 0.00 | 0.00 | ||
| 20260502034820 | 47 | 157 | 3.0 | 5.0 | 0.00 | 0.00 | 0.00 | ||
| 20260502034419 | 48 | 157 | 3.0 | 4.0 | 0.00 | 0.00 | 0.00 | ||
| 20260502034017 | 48 | 157 | 4.0 | 6.0 | 0.00 | 0.00 | 0.00 | ||
| 20260502033615 | 48 | 157 | 3.0 | 4.0 | 0.00 | 0.00 | 0.00 | ||
| 20260502033214 | 46 | 157 | 2.0 | 4.0 | 0.00 | 0.00 | 0.00 | ||
| 20260502032812 | 46 | 157 | 3.0 | 4.0 | 0.00 | 0.00 | 0.00 | ||
| 20260502032411 | 47 | 157 | 1.0 | 3.0 | 0.00 | 0.00 | 0.00 | ||
| 20260502032009 | 48 | 157 | 2.0 | 4.0 | 0.00 | 0.00 | 0.00 | ||
| 20260502031607 | 48 | 157 | 3.0 | 7.0 | 0.00 | 0.00 | 0.00 | ||
| 20260502031159 | 47 | 157 | 3.0 | 5.0 | 0.00 | 0.00 | 0.00 | ||
| 20260502030757 | 48 | 157 | 3.0 | 5.0 | 0.00 | 0.00 | 0.00 | ||
| 20260502030355 | 46 | 157 | 3.0 | 5.0 | 0.00 | 0.00 | 0.00 | ||
| 20260502025553 | 47 | 157 | 2.0 | 4.0 | 0.00 | 0.00 | 0.00 | ||
| 20260502025152 | 47 | 157 | 2.0 | 4.0 | 0.00 | 0.00 | 0.00 | ||
| 20260502024748 | 46 | 157 | 1.0 | 3.0 | 0.00 | 0.00 | 0.00 | ||
| 20260502024347 | 47 | 157 | 2.0 | 3.0 | 0.00 | 0.00 | 0.00 | ||
| 20260502023946 | 47 | 157 | 3.0 | 4.0 | 0.00 | 0.00 | 0.00 | ||
| 20260502023544 | 48 | 157 | 3.0 | 5.0 | 0.00 | 0.00 | 0.00 | ||
| 20260502023135 | 49 | 140 | 2.0 | 5.0 | 0.00 | 0.00 | 0.00 | ||
| 20260502022733 | 49 | 157 | 4.0 | 6.0 | 0.00 | 0.00 | 0.00 | ||
| 20260502022332 | 47 | 157 | 2.0 | 5.0 | 0.00 | 0.00 | 0.00 | ||
| 20260502021931 | 47 | 157 | 2.0 | 3.0 | 0.00 | 0.00 | 0.00 | ||
| 20260502021529 | 47 | 157 | 1.0 | 3.0 | 0.00 | 0.00 | 0.00 | ||
| 20260502021126 | 48 | 157 | 3.0 | 5.0 | 0.00 | 0.00 | 0.00 | ||
| 20260502020724 | 47 | 157 | 2.0 | 6.0 | 0.00 | 0.00 | 0.00 | ||
| 20260502020323 | 47 | 157 | 2.0 | 4.0 | 0.00 | 0.00 | 0.00 | ||
| 20260502015922 | 47 | 157 | 1.0 | 4.0 | 0.00 | 0.00 | 0.00 | ||
| 20260502015519 | 49 | 157 | 3.0 | 4.0 | 0.00 | 0.00 | 0.00 | ||
| 20260502015111 | 49 | 136 | 3.0 | 6.0 | 0.00 | 0.00 | 0.00 | ||
| 20260502014308 | 50 | 135 | 2.0 | 4.0 | 0.00 | 0.00 | 0.00 | ||
| 20260502013906 | 50 | 135 | 2.0 | 4.0 | 0.00 | 0.00 | 0.00 | ||
| 20260502013504 | 50 | 135 | 3.0 | 5.0 | 0.00 | 0.00 | 0.00 | ||
| 20260502013103 | 50 | 135 | 3.0 | 5.0 | 0.00 | 0.00 | 0.00 | ||
| 20260502012701 | 50 | 135 | 3.0 | 4.0 | 0.00 | 0.00 | 0.00 | ||
| 20260502012259 | 49 | 135 | 2.0 | 5.0 | 0.00 | 0.00 | 0.00 | ||
| 20260502011858 | 49 | 135 | 2.0 | 3.0 | 0.00 | 0.00 | 0.00 | ||
| 20260502011456 | 48 | 135 | 2.0 | 2.0 | 0.00 | 0.00 | 0.00 | ||
| 20260502011048 | 48 | 135 | 2.0 | 4.0 | 0.00 | 0.00 | 0.00 | ||
| 20260502010646 | 48 | 143 | 2.0 | 4.0 | 0.00 | 0.00 | 0.00 | ||
| 20260502010244 | 48 | 157 | 2.0 | 2.0 | 0.00 | 0.00 | 0.00 | ||
| 20260502005843 | 48 | 157 | 1.0 | 2.0 | 0.00 | 0.00 | 0.00 | ||
| 20260502005441 | 49 | 157 | 1.0 | 3.0 | 0.00 | 0.00 | 0.00 | ||
| 20260502005040 | 49 | 157 | 1.0 | 2.0 | 0.00 | 0.00 | 0.00 | ||
| 20260502004637 | 50 | 157 | 1.0 | 4.0 | 0.00 | 0.00 | 0.00 | ||
| 20260502004236 | 49 | 157 | 1.0 | 2.0 | 0.00 | 0.00 | 0.00 | ||
| 20260502003835 | 49 | 157 | 1.0 | 2.0 | 0.00 | 0.00 | 0.00 | ||
| 20260502003433 | 49 | 157 | 1.0 | 3.0 | 0.00 | 0.00 | 0.00 | ||
| 20260502003024 | 50 | 157 | 2.0 | 3.0 | 0.00 | 0.00 | 0.00 | ||
| 20260502002622 | 50 | 157 | 3.0 | 5.0 | 0.00 | 0.00 | 0.00 | ||
| 20260502002221 | 51 | 157 | 3.0 | 5.0 | 0.00 | 0.00 | 0.00 | ||
| 20260502001820 | 52 | 172 | 2.0 | 4.0 | 0.00 | 0.00 | 0.00 | ||
| 20260502001417 | 51 | 164 | 2.0 | 4.0 | 0.00 | 0.00 | 0.00 | ||
| 20260502001017 | 51 | 135 | 2.0 | 4.0 | 0.00 | 0.00 | 0.00 | ||
| 20260502000615 | 50 | 135 | 1.0 | 2.0 | 0.00 | 0.00 | 0.00 | ||
| 20260502000214 | 51 | 135 | 2.0 | 4.0 | 0.00 | 0.00 | 0.00 | ||
| 20260501235813 | 50 | 135 | 2.0 | 5.0 | 0.00 | 0.00 | 0.00 | ||
| 20260501235410 | 51 | 135 | 2.0 | 4.0 | 0.00 | 0.00 | 0.00 | ||
| 20260501235002 | 51 | 135 | 2.0 | 4.0 | 0.00 | 0.00 | 0.00 | ||
| 20260501234600 | 51 | 135 | 2.0 | 4.0 | 0.00 | 0.00 | 0.00 | ||
| 20260501234159 | 52 | 135 | 3.0 | 5.0 | 0.00 | 0.00 | 0.00 | ||
| 20260501233757 | 51 | 135 | 2.0 | 3.0 | 0.00 | 0.00 | 0.00 | ||
| 20260501233355 | 52 | 135 | 1.0 | 2.0 | 0.00 | 0.00 | 0.00 | ||
| 20260501232954 | 51 | 135 | 1.0 | 2.0 | 0.00 | 0.00 | 0.00 | ||
| 20260501232552 | 53 | 135 | 2.0 | 4.0 | 0.00 | 0.00 | 0.00 | ||
| 20260501232150 | 53 | 135 | 1.0 | 4.0 | 0.00 | 0.00 | 0.00 | ||
| 20260501231749 | 53 | 135 | 2.0 | 5.0 | 0.00 | 0.00 | 0.00 | ||
| 20260501231347 | 52 | 135 | 1.0 | 3.0 | 0.00 | 0.00 | 0.00 | ||
| 20260501230939 | 53 | 135 | 1.0 | 3.0 | 0.00 | 0.00 | 0.00 | ||
| 20260501230536 | 52 | 157 | 0.0 | 1.0 | 0.00 | 0.00 | 0.00 | ||
| 20260501230135 | 52 | 157 | 0.0 | 0.0 | 0.00 | 0.00 | 0.00 | ||
| 20260501225734 | 52 | 157 | 0.0 | 2.0 | 0.00 | 0.00 | 0.00 | ||
| 20260501225332 | 52 | 157 | 1.0 | 3.0 | 0.00 | 0.00 | 0.00 |